Regional Weather Roundup
Issued by NWS

Current Version | Previous Version | Text Only | Print | Product List | Glossary On
Versions: 1 2 3 4 5 6 7 8 9 10 11 12 13 14 15 16 17 18 19 20 21 22 23 24 25 26 27 28 29 30 31 32 33 34 35 36 37 38 39 40 41 42 43 44 45 46 47 48 49 50
000
ASUS44 KOUN 041510
RWROK

WEATHER ROUNDUP FOR OKLAHOMA
NATIONAL WEATHER SERVICE NORMAN OK
1000 AM CDT SAT JUL 04 2015

NOTE: "FAIR" INDICATES FEW OR NO CLOUDS BELOW 12,000 FEET WITH NO
      SIGNIFICANT WEATHER AND/OR OBSTRUCTIONS TO VISIBILITY.

OKZ001>007-009>012-014-015-017-041600-
NORTHWEST OKLAHOMA AND THE PANHANDLE

CITY           SKY/WX    TMP DP  RH WIND       PRES   REMARKS
GAGE           PTSUNNY   75  69  81 CALM      30.01R
GUYMON         MOSUNNY   76  60  57 S9        30.02F
ENID/WOODRING  MOSUNNY   82  70  65 E8        29.97S
$$

OKZ016-021>023-033>039-044-045-041600-
SOUTHWEST OKLAHOMA

CITY           SKY/WX    TMP DP  RH WIND       PRES   REMARKS
LAWTON/REGL    SUNNY     85  68  56 S5        29.96S
LAWTON/FT SILL SUNNY     83  71  68 S6        29.95S
FREDERICK      SUNNY     83  70  64 SW10      29.94S
CLINTON        CLOUDY    80  68  66 N3        30.02R
HOBART         PTSUNNY   80  71  74 S6        29.99R
ALTUS AFB      SUNNY     82  71  67 S6        29.96F
$$

OKZ018>020-024>031-041600-
CENTRAL OKLAHOMA

CITY           SKY/WX    TMP DP  RH WIND       PRES   REMARKS
OKLAHOMA CITY  MOSUNNY   80  71  74 SE5       29.98R
OKC/WILEY POST MOSUNNY   80  70  71 NE8       29.98R
STILLWATER     SUNNY     82  69  64 NE8       29.98R
GUTHRIE        MOSUNNY   79  71  76 SE7       29.98R
$$

OKZ008-013-054>072-041600-
NORTHEAST OKLAHOMA

CITY           SKY/WX    TMP DP  RH WIND       PRES   REMARKS
TULSA          MOSUNNY   79  71  76 E6        29.99R
TULSA/JONES    PTSUNNY   81  69  67 NE9       29.98R
PONCA CITY     SUNNY     80  69  69 E5        29.99R
BARTLESVILLE   SUNNY     79  70  74 SE5       30.00S
MUSKOGEE       MOSUNNY   77  71  82 SE9       29.99R
$$

OKZ032-040>043-046>053-073>077-041600-
SOUTH CENTRAL/SOUTHEAST OKLAHOMA

CITY           SKY/WX    TMP DP  RH WIND       PRES   REMARKS
ARDMORE/DWNTWN SUNNY     82  70  65 SW7       29.97S
MCALESTER      MOSUNNY   77  72  84 VRB3      29.99S
$$



USA.gov is the U.S. government's official web portal to all federal, state and local government web resources and services.